weather.gov     
National Weather Service

Other Surface Observations
NWS Homepage
This page is being discontinued on March 12, 2014.
The same data is available at this site. Please update your bookmarks.
Thank you, and we apologize for the inconvenience.
Please send an email to SR-SRH.Webmaster@noaa.gov with any concerns.


Current Version
Previous Version:    01  02  03  04  05  06  07  08  09  10  11  12  13  14  15  16  17  18  19  20  21  22  23  24  25  26  27  28  29  30  
   31  32  33  34  35  36  37  38  39  40  41  42  43  44  45  46  47  48  49  50  51  52  53  54  55  56  57  58  59  60  
[Printable]
442
SXUS55 KMSO 280304
OSOMSO
MONTANA AWOS SUMMARY
NATIONAL WEATHER SERVICE MISSOULA MT
903 PM MDT THU NOV 27 2014

Montana AWOS Reports

LAUREL      |K6S8 280255Z AUTO 00000KT 40SM 08/M05 A2982 RMK AO1 T00781049
TWIN BRIDGES|K7S1 280255Z AUTO 13011KT 40SM 08/01 A2997 RMK AO1 T00830011
PLAINS      |KS34 280255Z AUTO 00000KT 40SM 11/03 A2979 RMK AO1 T01110033





U.S. Dept. of Commerce
NOAA National Weather Service
1325 East West Highway
Silver Spring, MD 20910
E-mail: w-nws.webmaster@noaa.gov
Page last modified: May 16, 2007
NATIONAL WEATHER SERVICE: for Safety, for Work, for Fun - FOR LIFE